FW9049 Weather Reports


time (UTC)temp
C
wind
direction
speed
KPH
gust
KPH
rain 1hr
cm
rain 24hr
cm
rain mn
cm
humidity
%
barometer
mb
20260507144516 10 10 3.2 4.8 0.00 0.00 0.00 77 1022.7
20260507144014 10 324 0.0 1.6 0.00 0.00 0.00 77 1022.6
20260507143511 10 337 1.6 1.6 0.00 0.00 0.00 78 1022.5
20260507143009 10 1 3.2 3.2 0.00 0.00 0.00 77 1022.7
20260507142504 10 342 1.6 1.6 0.00 0.00 0.00 78 1022.8
20260507142001 10 341 4.8 8.0 0.00 0.00 0.00 78 1022.4
20260507141457 10 337 0.0 0.0 0.00 0.00 0.00 78 1022.5
20260507140954 10 334 0.0 1.6 0.00 0.00 0.00 79 1022.5
20260507140450 10 343 3.2 3.2 0.00 0.00 0.00 79 1022.4
20260507135948 10 330 4.8 8.0 0.00 0.00 0.00 79 1022.4
20260507135445 10 320 4.8 8.0 0.00 0.00 0.00 79 1022.5
20260507134942 10 339 0.0 0.0 0.00 0.00 0.00 79 1022.2
20260507134438 10 339 1.6 3.2 0.00 0.00 0.00 79 1022.3
20260507133934 10 340 1.6 1.6 0.00 0.00 0.00 79 1022.4
20260507133431 10 4 3.2 4.8 0.00 0.00 0.00 78 1022.1
20260507132930 10 339 0.0 0.0 0.00 0.00 0.00 79 1022.1
20260507132425 10 342 1.6 1.6 0.00 0.00 0.00 79 1022.3
20260507131922 10 338 1.6 1.6 0.00 0.00 0.00 79 1022.2
20260507131419 10 342 0.0 0.0 0.00 0.00 0.00 79 1022.3
20260507130916 10 338 3.2 4.8 0.00 0.00 0.00 78 1022.4
20260507130413 10 335 1.6 1.6 0.00 0.00 0.00 79 1022.4
20260507125912 10 340 0.0 0.0 0.00 0.00 0.00 79 1022.3
20260507125409 10 335 1.6 1.6 0.00 0.00 0.00 79 1022.5
20260507124906 10 340 0.0 1.6 0.00 0.00 0.00 79 1022.3
20260507124402 10 344 4.8 4.8 0.00 0.00 0.00 79 1022.1
20260507123901 10 313 0.0 3.2 0.00 0.00 0.00 79 1022.2
20260507123357 10 344 1.6 1.6 0.00 0.00 0.00 79 1022.0
20260507122854 10 328 1.6 3.2 0.00 0.00 0.00 79 1022.2
20260507122349 10 341 0.0 1.6 0.00 0.00 0.00 79 1022.4
20260507121845 10 335 1.6 3.2 0.00 0.00 0.00 79 1022.2
20260507121341 10 336 1.6 1.6 0.00 0.00 0.00 79 1022.3
20260507120838 10 344 3.2 3.2 0.00 0.00 0.00 78 1022.3
20260507120334 10 7 1.6 3.2 0.00 0.00 0.00 78 1022.7
20260507115831 10 340 1.6 1.6 0.00 0.00 0.00 78 1022.3
20260507115326 11 339 1.6 3.2 0.00 0.00 0.00 78 1022.5
20260507114822 11 327 3.2 3.2 0.00 0.00 0.00 78 1022.5
20260507114320 11 342 0.0 1.6 0.00 0.00 0.00 78 1022.5
20260507113817 11 327 0.0 0.0 0.00 0.00 0.00 78 1022.5
20260507113314 11 14 4.8 8.0 0.00 0.00 0.00 78 1022.4
20260507112812 11 337 1.6 1.6 0.00 0.00 0.00 78 1022.5
20260507112308 11 333 3.2 4.8 0.00 0.00 0.00 78 1022.5
20260507111806 11 342 1.6 1.6 0.00 0.00 0.00 78 1022.6
20260507111302 11 345 3.2 3.2 0.00 0.00 0.00 79 1022.5
20260507110758 11 339 1.6 1.6 0.00 0.00 0.00 78 1022.6
20260507110255 11 346 1.6 3.2 0.00 0.00 0.00 78 1022.4
20260507105752 11 337 3.2 3.2 0.00 0.00 0.00 78 1022.7
20260507105248 11 334 1.6 1.6 0.00 0.00 0.00 78 1022.7
20260507104746 11 350 6.4 9.7 0.00 0.00 0.00 78 1022.8
20260507104242 11 312 4.8 9.7 0.00 0.00 0.00 78 1022.5
20260507103738 11 334 4.8 8.0 0.00 0.00 0.00 78 1022.5
20260507103234 11 340 3.2 4.8 0.00 0.00 0.00 79 1022.5
20260507102731 11 353 8.0 11.3 0.00 0.00 0.00 78 1022.5
20260507102228 11 355 0.0 3.2 0.00 0.00 0.00 79 1022.5
20260507101724 11 334 0.0 0.0 0.00 0.00 0.00 79 1022.7
20260507101219 11 353 1.6 3.2 0.00 0.00 0.00 78 1022.7
20260507100716 11 336 1.6 1.6 0.00 0.00 0.00 78 1022.6
20260507100215 11 338 9.7 12.9 0.00 0.00 0.00 79 1022.8
20260507095713 11 348 3.2 4.8 0.00 0.00 0.00 79 1022.8
20260507095209 11 339 0.0 0.0 0.00 0.00 0.00 79 1022.8
20260507094705 11 344 1.6 1.6 0.00 0.00 0.00 79 1022.7
20260507094202 11 341 1.6 1.6 0.00 0.00 0.00 79 1023.0
20260507093659 11 359 4.8 4.8 0.00 0.00 0.00 79 1023.1
20260507093158 11 350 4.8 4.8 0.00 0.00 0.00 79 1023.0
20260507092655 11 338 1.6 3.2 0.00 0.00 0.00 80 1023.3
20260507092151 11 335 0.0 0.0 0.00 0.00 0.00 79 1023.1
20260507091648 12 334 0.0 0.0 0.00 0.00 0.00 79 1023.1
20260507091144 12 344 1.6 1.6 0.00 0.00 0.00 79 1023.1
20260507090639 12 336 0.0 1.6 0.00 0.00 0.00 79 1023.1
20260507090137 12 335 0.0 0.0 0.00 0.00 0.00 79 1023.1
20260507085634 12 350 3.2 4.8 0.00 0.00 0.00 79 1022.8
20260507085131 12 333 0.0 1.6 0.00 0.00 0.00 79 1023.1
20260507084627 12 356 3.2 3.2 0.00 0.00 0.00 79 1023.0
20260507084124 12 335 0.0 0.0 0.00 0.00 0.00 79 1023.2
20260507083621 12 350 8.0 9.7 0.00 0.00 0.00 79 1023.0
20260507083118 12 338 0.0 0.0 0.00 0.00 0.00 80 1023.4
20260507082614 12 334 3.2 3.2 0.00 0.00 0.00 80 1023.4
20260507082110 12 341 0.0 1.6 0.00 0.00 0.00 80 1023.2
20260507081607 12 336 0.0 0.0 0.00 0.00 0.00 81 1023.3
20260507081104 12 333 0.0 0.0 0.00 0.00 0.00 81 1023.0
20260507080600 12 339 0.0 0.0 0.00 0.00 0.00 81 1023.2
20260507080056 12 341 3.2 3.2 0.00 0.00 0.00 81 1023.3
20260507075551 12 336 0.0 0.0 0.00 0.00 0.00 81 1023.1
20260507075048 12 336 0.0 0.0 0.00 0.00 0.00 81 1023.2
20260507074545 12 348 1.6 1.6 0.00 0.00 0.00 81 1023.2
20260507074043 12 344 0.0 0.0 0.00 0.00 0.00 81 1023.3
20260507073539 12 341 3.2 3.2 0.00 0.00 0.00 81 1023.0
20260507073036 12 343 1.6 1.6 0.00 0.00 0.00 81 1023.0
20260507072533 12 1 3.2 4.8 0.00 0.00 0.00 80 1023.0
20260507072030 12 0 1.6 3.2 0.00 0.00 0.00 80 1023.1
20260507071527 12 6 3.2 3.2 0.00 0.00 0.00 80 1022.8
20260507071024 12 336 0.0 1.6 0.00 0.00 0.00 80 1022.9
20260507070521 12 337 4.8 8.0 0.00 0.00 0.00 80 1023.0
20260507070018 12 358 1.6 3.2 0.00 0.00 0.00 80 1022.9
20260507065514 12 8 6.4 8.0 0.00 0.00 0.00 80 1023.0
20260507065012 12 344 0.0 1.6 0.00 0.00 0.00 80 1023.0
20260507064510 12 359 1.6 3.2 0.00 0.00 0.00 80 1023.1
20260507064008 12 346 0.0 0.0 0.00 0.00 0.00 80 1023.0
20260507063504 12 342 0.0 0.0 0.00 0.00 0.00 80 1023.0
20260507063002 12 339 4.8 4.8 0.00 0.00 0.00 80 1023.2
20260507062458 12 333 0.0 0.0 0.00 0.00 0.00 80 1023.1
20260507061956 12 47 4.8 8.0 0.00 0.00 0.00 80 1023.2
20260507061454 12 334 1.6 3.2 0.00 0.00 0.00 80 1023.2
20260507060952 12 3 3.2 3.2 0.00 0.00 0.00 80 1023.0
20260507060448 12 316 8.0 9.7 0.00 0.00 0.00 80 1023.1
20260507055945 12 0 1.6 1.6 0.00 0.00 0.00 80 1022.9
20260507055440 12 5 3.2 11.3 0.00 0.00 0.00 79 1023.0
20260507054937 12 301 3.2 3.2 0.00 0.00 0.00 79 1023.1
20260507054433 12 335 4.8 8.0 0.00 0.00 0.00 79 1023.0
20260507053931 12 6 1.6 3.2 0.00 0.00 0.00 79 1022.9
20260507053428 12 335 0.0 1.6 0.00 0.00 0.00 79 1022.9
20260507052927 12 328 3.2 3.2 0.00 0.00 0.00 78 1022.7
20260507052424 12 341 8.0 11.3 0.00 0.00 0.00 78 1022.7
20260507051920 13 328 3.2 3.2 0.00 0.00 0.00 78 1022.8
20260507051418 13 341 4.8 8.0 0.00 0.00 0.00 78 1023.1
20260507050915 13 335 3.2 4.8 0.00 0.00 0.00 78 1022.9
20260507050412 13 27 1.6 3.2 0.00 0.00 0.00 78 1023.0
20260507045908 13 331 1.6 1.6 0.00 0.00 0.00 78 1023.0
20260507045405 13 335 1.6 3.2 0.00 0.00 0.00 78 1022.8
20260507044902 13 332 3.2 3.2 0.00 0.00 0.00 78 1022.8
20260507044359 13 343 1.6 1.6 0.00 0.00 0.00 78 1022.8
20260507043855 13 349 0.0 1.6 0.00 0.00 0.00 78 1022.7
20260507043351 13 325 3.2 4.8 0.00 0.00 0.00 78 1022.6
20260507042848 13 333 6.4 8.0 0.00 0.00 0.00 78 1022.8
20260507042344 14 220 4.8 8.0 0.00 0.00 0.00 78 1022.9
20260507041840 14 332 1.6 1.6 0.00 0.00 0.00 78 1022.5
20260507041337 14 327 1.6 3.2 0.00 0.00 0.00 78 1022.7
20260507040835 14 4 3.2 4.8 0.00 0.00 0.00 78 1022.5
20260507040330 14 10 4.8 4.8 0.00 0.00 0.00 78 1022.6
20260507035826 14 5 4.8 4.8 0.00 0.00 0.00 78 1022.3
20260507035322 15 336 1.6 1.6 0.00 0.00 0.00 78 1022.4
20260507034820 15 328 3.2 4.8 0.00 0.00 0.00 78 1022.2
20260507034316 15 327 3.2 8.0 0.00 0.00 0.00 78 1022.0
20260507033815 15 333 3.2 3.2 0.00 0.00 0.00 77 1022.0
20260507033312 15 342 6.4 8.0 0.00 0.00 0.00 77 1022.2
20260507032809 15 339 3.2 4.8 0.00 0.00 0.00 77 1021.9
20260507032306 15 354 1.6 1.6 0.00 0.00 0.00 77 1022.1
20260507031802 15 341 4.8 4.8 0.00 0.00 0.00 77 1021.8
20260507031259 15 343 1.6 3.2 0.00 0.00 0.00 77 1021.9
20260507030755 15 331 1.6 3.2 0.00 0.00 0.00 77 1021.6
20260507030253 15 345 3.2 3.2 0.00 0.00 0.00 77 1021.6
20260507025750 15 306 8.0 12.9 0.00 0.00 0.00 77 1021.7
20260507025247 15 2 1.6 3.2 0.00 0.00 0.00 76 1021.6
20260507024745 15 336 1.6 1.6 0.00 0.00 0.00 76 1021.4
20260507024242 15 352 3.2 3.2 0.00 0.00 0.00 75 1021.5
20260507023737 16 45 4.8 8.0 0.00 0.00 0.00 75 1021.7
20260507023235 16 16 4.8 4.8 0.00 0.00 0.00 74 1021.5
20260507022732 16 350 3.2 3.2 0.00 0.00 0.00 74 1021.4
20260507022228 16 327 8.0 11.3 0.00 0.00 0.00 73 1021.3
20260507021724 17 0 8.0 9.7 0.00 0.00 0.00 72 1021.7
20260507021220 17 351 4.8 4.8 0.00 0.00 0.00 71 1021.7
20260507020718 17 309 8.0 14.5 0.00 0.00 0.00 70 1021.8
20260507020214 17 324 6.4 9.7 0.00 0.00 0.00 70 1021.7
20260507015712 17 337 4.8 4.8 0.00 0.00 0.00 70 1021.5
20260507015209 17 5 1.6 4.8 0.00 0.00 0.00 69 1021.6
20260507014706 17 321 6.4 9.7 0.00 0.00 0.00 71 1021.8
20260507014202 18 2 11.3 14.5 0.00 0.00 0.00 70 1021.7
20260507013659 18 342 4.8 9.7 0.00 0.00 0.00 70 1021.5
20260507013156 18 359 9.7 14.5 0.00 0.00 0.00 70 1021.6
20260507012654 18 350 4.8 8.0 0.00 0.00 0.00 71 1021.6
20260507012149 18 323 4.8 4.8 0.00 0.00 0.00 71 1021.6
20260507011647 18 325 3.2 3.2 0.00 0.00 0.00 72 1021.5
20260507011143 19 18 8.0 9.7 0.00 0.00 0.00 70 1021.6
20260507010638 19 347 8.0 9.7 0.00 0.00 0.00 70 1021.6
20260507010134 19 314 1.6 1.6 0.00 0.00 0.00 70 1021.6
20260507005631 19 349 1.6 3.2 0.00 0.00 0.00 69 1021.4
20260507005127 20 320 3.2 4.8 0.00 0.00 0.00 67 1021.6
20260507004625 19 58 3.2 3.2 0.00 0.00 0.00 69 1021.7
20260507004122 19 342 6.4 8.0 0.00 0.00 0.00 69 1021.6
20260507003618 19 335 0.0 1.6 0.00 0.00 0.00 69 1021.4
20260507003113 20 349 0.0 0.0 0.00 0.00 0.00 67 1021.6
20260507002610 19 341 1.6 3.2 0.00 0.00 0.00 67 1021.6
20260507002105 19 339 4.8 4.8 0.00 0.00 0.00 67 1021.4
20260507001603 20 327 1.6 3.2 0.00 0.00 0.00 65 1021.6
20260507001100 20 345 1.6 1.6 0.00 0.00 0.00 66 1021.5
20260507000556 20 5 1.6 3.2 0.00 0.00 0.00 66 1021.6
20260507000052 20 349 3.2 4.8 0.00 0.00 0.00 66 1021.5
20260506235549 20 355 9.7 11.3 0.00 0.00 0.00 64 1021.4
20260506235044 21 345 3.2 3.2 0.00 0.00 0.00 62 1021.3
20260506234542 20 342 0.0 1.6 0.00 0.00 0.00 64 1021.4
20260506234039 22 316 1.6 3.2 0.00 0.00 0.00 59 1021.3
20260506233536 22 325 0.0 1.6 0.00 0.00 0.00 59 1021.7
20260506233032 22 339 0.0 0.0 0.00 0.00 0.00 57 1021.7
20260506232529 22 306 1.6 1.6 0.00 0.00 0.00 59 1021.6
20260506232019 22 338 1.6 1.6 0.00 0.00 0.00 58 1021.4
20260506231517 22 329 3.2 3.2 0.00 0.00 0.00 59 1021.4
20260506231015 22 318 1.6 1.6 0.00 0.00 0.00 56 1021.7
20260506230510 22 334 0.0 0.0 0.00 0.00 0.00 58 1021.8
20260506230008 22 289 1.6 3.2 0.00 0.00 0.00 58 1021.7
20260506225504 21 326 3.2 3.2 0.00 0.00 0.00 59 1021.8
20260506225001 21 320 3.2 9.7 0.00 0.00 0.00 60 1021.8
20260506224458 22 335 0.0 1.6 0.00 0.00 0.00 59 1021.9
20260506223954 22 335 0.0 0.0 0.00 0.00 0.00 60 1022.0
20260506223450 21 336 0.0 0.0 0.00 0.00 0.00 63 1022.1
20260506222948 20 352 0.0 1.6 0.00 0.00 0.00 65 1022.1
20260506222444 20 337 1.6 3.2 0.00 0.00 0.00 66 1022.1
20260506221941 21 336 0.0 0.0 0.00 0.00 0.00 64 1022.0
20260506221438 20 337 0.0 0.0 0.00 0.00 0.00 65 1022.2
20260506220936 20 345 4.8 4.8 0.00 0.00 0.00 66 1022.2
20260506220431 21 326 1.6 1.6 0.00 0.00 0.00 65 1022.1
20260506215928 19 330 3.2 3.2 0.00 0.00 0.00 69 1022.2
20260506215424 19 241 3.2 3.2 0.00 0.00 0.00 69 1022.2
20260506214920 19 52 1.6 3.2 0.00 0.00 0.00 69 1022.2
20260506214417 18 335 3.2 3.2 0.00 0.00 0.00 72 1022.1
20260506213915 19 351 6.4 8.0 0.00 0.00 0.00 69 1022.3
20260506213412 20 347 1.6 1.6 0.00 0.00 0.00 68 1022.5
20260506212909 19 359 1.6 1.6 0.00 0.00 0.00 69 1022.3
20260506212405 18 338 1.6 1.6 0.00 0.00 0.00 72 1022.4
20260506211900 17 334 1.6 1.6 0.00 0.00 0.00 73 1022.5
20260506211356 17 352 4.8 4.8 0.00 0.00 0.00 73 1022.7
20260506210854 17 0 3.2 3.2 0.00 0.00 0.00 74 1022.5
20260506210350 18 319 3.2 4.8 0.00 0.00 0.00 73 1022.5
20260506205848 18 337 3.2 3.2 0.00 0.00 0.00 73 1022.6
20260506205343 17 346 1.6 3.2 0.00 0.00 0.00 76 1022.4
20260506204840 17 342 1.6 1.6 0.00 0.00 0.00 76 1022.5
20260506204338 18 344 1.6 1.6 0.00 0.00 0.00 73 1022.6
20260506203835 18 357 3.2 3.2 0.00 0.00 0.00 72 1022.5
20260506203332 20 331 0.0 1.6 0.00 0.00 0.00 68 1022.6
20260506202829 19 335 1.6 1.6 0.00 0.00 0.00 69 1022.6
20260506202326 18 350 0.0 1.6 0.00 0.00 0.00 69 1022.5
20260506201822 18 333 0.0 1.6 0.00 0.00 0.00 70 1022.6
20260506201320 17 341 0.0 0.0 0.00 0.00 0.00 73 1022.6
20260506200817 18 323 0.0 1.6 0.00 0.00 0.00 72 1022.7
20260506200313 17 340 0.0 1.6 0.00 0.00 0.00 74 1022.6
20260506195809 17 335 0.0 0.0 0.00 0.00 0.00 75 1022.8
20260506195306 17 340 1.6 3.2 0.00 0.00 0.00 75 1022.7
20260506194803 17 333 0.0 0.0 0.00 0.00 0.00 76 1022.9
20260506194259 17 330 0.0 1.6 0.00 0.00 0.00 75 1023.0
20260506193758 17 336 0.0 0.0 0.00 0.00 0.00 74 1022.9
20260506193254 17 344 1.6 1.6 0.00 0.00 0.00 75 1022.9
20260506192750 17 338 0.0 1.6 0.00 0.00 0.00 75 1022.9
20260506192247 17 336 0.0 0.0 0.00 0.00 0.00 75 1022.8
20260506191744 17 331 0.0 1.6 0.00 0.00 0.00 77 1022.5
20260506191240 17 338 0.0 0.0 0.00 0.00 0.00 76 1022.7
20260506190738 17 345 1.6 1.6 0.00 0.00 0.00 76 1022.8
20260506190234 17 333 0.0 0.0 0.00 0.00 0.00 74 1022.9
20260506185731 17 335 0.0 0.0 0.00 0.00 0.00 75 1022.5
20260506185227 16 330 0.0 0.0 0.00 0.00 0.00 77 1022.7
20260506184725 17 337 0.0 0.0 0.00 0.00 0.00 76 1022.7
20260506184222 16 320 0.0 0.0 0.00 0.00 0.00 76 1022.8
20260506183719 16 331 1.6 3.2 0.00 0.00 0.00 77 1022.6
20260506183215 16 336 0.0 0.0 0.00 0.00 0.00 78 1022.5
20260506182712 16 321 1.6 1.6 0.00 0.00 0.00 80 1022.7
20260506182209 15 343 1.6 1.6 0.00 0.00 0.00 81 1022.7
20260506181707 15 334 1.6 1.6 0.00 0.00 0.00 81 1022.6
20260506181204 15 338 0.0 1.6 0.00 0.00 0.00 81 1022.7
20260506180701 15 351 1.6 1.6 0.00 0.00 0.00 81 1022.7
20260506180157 15 346 1.6 1.6 0.00 0.00 0.00 79 1022.8
20260506175654 16 331 0.0 0.0 0.00 0.00 0.00 77 1022.6
20260506175151 16 335 0.0 0.0 0.00 0.00 0.00 78 1022.6
20260506174649 15 337 0.0 0.0 0.00 0.00 0.00 79 1022.6
20260506174145 15 330 0.0 0.0 0.00 0.00 0.00 79 1022.6
20260506173643 16 352 1.6 3.2 0.00 0.00 0.00 78 1022.6
20260506173134 16 348 1.6 1.6 0.00 0.00 0.00 77 1022.7
20260506172631 15 350 0.0 1.6 0.00 0.00 0.00 78 1022.5
20260506172127 15 334 0.0 0.0 0.00 0.00 0.00 80 1022.4
20260506171625 15 347 1.6 1.6 0.00 0.00 0.00 81 1022.4
20260506171122 15 335 0.0 0.0 0.00 0.00 0.00 81 1022.5
20260506170619 15 353 3.2 3.2 0.00 0.00 0.00 81 1022.6
20260506170111 15 332 3.2 3.2 0.00 0.00 0.00 80 1022.5
20260506165610 15 357 1.6 1.6 0.00 0.00 0.00 78 1022.4
20260506165105 15 336 0.0 0.0 0.00 0.00 0.00 79 1022.5
20260506164603 15 322 3.2 4.8 0.00 0.00 0.00 80 1022.4
20260506164100 15 341 0.0 1.6 0.00 0.00 0.00 80 1022.5
20260506163555 15 348 0.0 0.0 0.00 0.00 0.00 80 1022.2
20260506163051 15 337 0.0 0.0 0.00 0.00 0.00 81 1022.4
20260506162548 15 338 1.6 3.2 0.00 0.00 0.00 79 1022.3
20260506162045 15 336 0.0 0.0 0.00 0.00 0.00 77 1022.2
20260506161542 16 344 0.0 1.6 0.00 0.00 0.00 76 1022.3
20260506161033 16 343 1.6 1.6 0.00 0.00 0.00 75 1022.2
20260506160531 16 328 3.2 3.2 0.00 0.00 0.00 74 1021.8
20260506160028 15 339 1.6 1.6 0.00 0.00 0.00 80 1021.8
20260506155527 13 347 0.0 0.0 0.00 0.00 0.00 83 1021.5
20260506153703 12 343 4.8 4.8 0.00 0.00 0.00 87 1022.5
20260506153201 12 33 4.8 4.8 0.00 0.00 0.00 87 1022.6
20260506152658 12 338 3.2 3.2 0.00 0.00 0.00 88 1022.6
20260506152155 12 3 1.6 1.6 0.00 0.00 0.00 88 1022.7
20260506151654 12 337 0.0 1.6 0.00 0.00 0.00 88 1022.6
20260506151150 12 339 1.6 3.2 0.00 0.00 0.00 88 1022.6
20260506150647 13 352 6.4 9.7 0.00 0.00 0.00 88 1022.4
20260506150144 13 336 0.0 1.6 0.00 0.00 0.00 88 1022.3
20260506145641 13 18 6.4 8.0 0.00 0.00 0.00 88 1022.1
20260506145137 13 331 1.6 1.6 0.00 0.00 0.00 88 1022.3